• In Italy
  • List of Countries
  • For 7 days
  • Water Temperature
  • Satellite Maps
  • Weather Map
  • Weather Widgets
  • user-avatar
    Login

    Hourly Weather Omagh

    Today, 11 December, Monday

    Time Temperature Precipitation Wind Pressure Humidity
    00:00 -2°C° 0 mm 2 mps 733 mmHg 87%
    01:00 -2°C° 0.1 mm 2 mps 734 mmHg 87%
    02:00 -2°C° 0.1 mm 2 mps 734 mmHg 88%
    03:00 -1°C° 0.1 mm 2 mps 734 mmHg 89%
    04:00 -1°C° 0.2 mm 2 mps 735 mmHg 88%
    05:00 0°C° 0.2 mm 3 mps 735 mmHg 88%
    06:00 0°C° 0 mm 3 mps 735 mmHg 87%
    07:00 +1°C° 0 mm 3 mps 736 mmHg 87%
    08:00 0°C° 0 mm 4 mps 737 mmHg 86%
    09:00 +1°C° 0 mm 4 mps 737 mmHg 86%
    10:00 +1°C° 0 mm 4 mps 738 mmHg 85%
    11:00 +3°C° 0 mm 4 mps 739 mmHg 84%
    12:00 +3°C° 0 mm 4 mps 739 mmHg 81%
    13:00 +3°C° 0 mm 4 mps 739 mmHg 82%
    14:00 +3°C° 0 mm 4 mps 740 mmHg 83%
    15:00 +3°C° 0 mm 4 mps 741 mmHg 84%
    16:00 +2°C° 0 mm 3 mps 741 mmHg 85%
    17:00 +2°C° 0 mm 3 mps 742 mmHg 86%
    18:00 +1°C° 0 mm 3 mps 743 mmHg 88%
    19:00 +1°C° 0 mm 3 mps 743 mmHg 88%
    20:00 +1°C° 0 mm 3 mps 744 mmHg 89%
    21:00 +1°C° 0 mm 3 mps 745 mmHg 89%
    22:00 +2°C° 0 mm 2 mps 745 mmHg 90%
    23:00 +2°C° 0 mm 2 mps 745 mmHg 90%

    Tomorrow, 12 December, Tuesday

    Time Temperature Precipitation Wind Pressure Humidity
    00:00 +1°C° 0 mm 2 mps 746 mmHg 91%
    01:00 +1°C° 0 mm 2 mps 746 mmHg 91%
    02:00 +1°C° 0 mm 2 mps 746 mmHg 91%
    03:00 +1°C° 0 mm 2 mps 746 mmHg 91%
    04:00 +1°C° 0 mm 2 mps 746 mmHg 91%
    05:00 +1°C° 0 mm 2 mps 746 mmHg 92%
    06:00 +2°C° 0 mm 2 mps 747 mmHg 92%
    07:00 +2°C° 0 mm 2 mps 746 mmHg 92%
    08:00 +2°C° 0 mm 2 mps 746 mmHg 92%
    09:00 +2°C° 0 mm 2 mps 746 mmHg 92%
    10:00 +2°C° 0.1 mm 3 mps 746 mmHg 92%
    11:00 +2°C° 0.1 mm 3 mps 745 mmHg 91%
    12:00 +3°C° 0.1 mm 4 mps 744 mmHg 90%
    13:00 +3°C° 0.5 mm 4 mps 744 mmHg 91%
    14:00 +2°C° 0.5 mm 5 mps 743 mmHg 91%
    15:00 +2°C° 0.5 mm 5 mps 743 mmHg 92%
    16:00 +3°C° 0.1 mm 5 mps 743 mmHg 92%
    17:00 +4°C° 0.1 mm 4 mps 743 mmHg 91%
    18:00 +4°C° 0.1 mm 4 mps 743 mmHg 90%
    19:00 +4°C° 0 mm 3 mps 743 mmHg 90%
    20:00 +4°C° 0 mm 3 mps 743 mmHg 90%
    21:00 +3°C° 0 mm 3 mps 743 mmHg 89%
    22:00 +3°C° 0 mm 3 mps 743 mmHg 90%
    23:00 +3°C° 0 mm 3 mps 743 mmHg 91%

    Day after tomorrow, 13 December, Wednesday

    Time Temperature Precipitation Wind Pressure Humidity
    00:00 +3°C° 0 mm 3 mps 742 mmHg 91%
    01:00 +3°C° 0.1 mm 4 mps 742 mmHg 92%
    02:00 +3°C° 0.1 mm 4 mps 741 mmHg 92%
    03:00 +3°C° 0.1 mm 4 mps 741 mmHg 92%
    04:00 +4°C° 0.5 mm 4 mps 740 mmHg 91%
    05:00 +3°C° 0.5 mm 5 mps 739 mmHg 91%
    06:00 +3°C° 0.5 mm 5 mps 738 mmHg 90%
    07:00 +3°C° 0.4 mm 6 mps 738 mmHg 87%
    08:00 +3°C° 0.4 mm 6 mps 738 mmHg 84%
    09:00 +2°C° 0.4 mm 6 mps 737 mmHg 81%
    10:00 +2°C° 0.4 mm 6 mps 737 mmHg 80%
    11:00 +2°C° 0.4 mm 7 mps 737 mmHg 78%
    12:00 +2°C° 0.4 mm 7 mps 737 mmHg 77%
    13:00 0°C° 0.5 mm 7 mps 737 mmHg 76%
    14:00 0°C° 0.5 mm 7 mps 736 mmHg 74%
    15:00 -1°C° 0.5 mm 7 mps 736 mmHg 73%
    16:00 -1°C° 0.3 mm 7 mps 736 mmHg 75%
    17:00 -1°C° 0.3 mm 7 mps 736 mmHg 76%
    18:00 -1°C° 0.3 mm 6 mps 736 mmHg 77%
    19:00 -1°C° 0.3 mm 6 mps 736 mmHg 77%
    20:00 -1°C° 0.3 mm 6 mps 736 mmHg 77%
    21:00 -1°C° 0.3 mm 6 mps 736 mmHg 77%
    22:00 -1°C° 0.4 mm 6 mps 736 mmHg 78%
    23:00 -1°C° 0.4 mm 6 mps 736 mmHg 79%

    14 December, Thursday

    Time Temperature Precipitation Wind Pressure Humidity
    00:00 -1°C° 0.4 mm 6 mps 736 mmHg 80%
    01:00 -1°C° 0.4 mm 6 mps 735 mmHg 80%
    02:00 -1°C° 0.4 mm 6 mps 735 mmHg 81%
    03:00 -1°C° 0.4 mm 6 mps 735 mmHg 81%
    04:00 -1°C° 0.4 mm 6 mps 734 mmHg 82%
    05:00 0°C° 0.4 mm 5 mps 734 mmHg 83%
    06:00 0°C° 0.4 mm 5 mps 734 mmHg 84%
    07:00 0°C° 0.3 mm 5 mps 733 mmHg 84%
    08:00 0°C° 0.3 mm 5 mps 733 mmHg 84%
    09:00 0°C° 0.3 mm 5 mps 733 mmHg 84%
    10:00 +1°C° 0.7 mm 6 mps 732 mmHg 86%
    11:00 +1°C° 0.7 mm 6 mps 731 mmHg 87%
    12:00 +2°C° 0.7 mm 7 mps 730 mmHg 89%
    13:00 +2°C° 0.5 mm 7 mps 730 mmHg 87%
    14:00 +2°C° 0.5 mm 7 mps 730 mmHg 85%
    15:00 +2°C° 0.5 mm 7 mps 730 mmHg 83%
    16:00 +2°C° 0.2 mm 6 mps 730 mmHg 83%
    17:00 +2°C° 0.2 mm 6 mps 731 mmHg 83%
    18:00 +2°C° 0.2 mm 6 mps 732 mmHg 83%
    19:00 +2°C° 0.1 mm 5 mps 733 mmHg 83%
    20:00 +1°C° 0.1 mm 5 mps 735 mmHg 84%
    21:00 +1°C° 0.1 mm 5 mps 736 mmHg 84%
    22:00 +1°C° 0.1 mm 5 mps 737 mmHg 83%
    23:00 +1°C° 0.1 mm 6 mps 738 mmHg 83%

    15 December, Friday

    Time Temperature Precipitation Wind Pressure Humidity
    00:00 +2°C° 0.1 mm 6 mps 739 mmHg 82%
    01:00 +2°C° 0.1 mm 6 mps 740 mmHg 81%
    02:00 +2°C° 0.1 mm 6 mps 741 mmHg 80%
    03:00 +2°C° 0.1 mm 7 mps 742 mmHg 78%
    04:00 +1°C° 0.1 mm 6 mps 743 mmHg 78%
    05:00 +1°C° 0.1 mm 6 mps 744 mmHg 78%
    06:00 +1°C° 0.1 mm 6 mps 744 mmHg 77%
    07:00 +1°C° 0.1 mm 6 mps 745 mmHg 78%
    08:00 +1°C° 0.1 mm 5 mps 746 mmHg 79%
    09:00 +1°C° 0.1 mm 5 mps 747 mmHg 80%
    10:00 +1°C° 0 mm 5 mps 748 mmHg 79%
    11:00 +2°C° 0 mm 5 mps 748 mmHg 79%
    12:00 +2°C° 0 mm 5 mps 749 mmHg 79%
    13:00 +3°C° 0.1 mm 4 mps 749 mmHg 79%
    14:00 +3°C° 0.1 mm 4 mps 750 mmHg 80%
    15:00 +3°C° 0.1 mm 4 mps 750 mmHg 80%
    16:00 +1°C° 0 mm 4 mps 751 mmHg 81%
    17:00 +1°C° 0 mm 4 mps 751 mmHg 82%
    18:00 0°C° 0 mm 4 mps 752 mmHg 84%
    19:00 0°C° 0 mm 4 mps 752 mmHg 84%
    20:00 +1°C° 0 mm 3 mps 753 mmHg 84%
    21:00 +1°C° 0 mm 3 mps 754 mmHg 84%
    22:00 0°C° 0 mm 3 mps 754 mmHg 84%
    23:00 +1°C° 0 mm 2 mps 754 mmHg 85%

    16 December, Saturday

    Time Temperature Precipitation Wind Pressure Humidity
    00:00 +1°C° 0 mm 2 mps 754 mmHg 85%
    01:00 +1°C° 0 mm 2 mps 754 mmHg 86%
    02:00 -1°C° 0 mm 2 mps 754 mmHg 87%
    03:00 -1°C° 0 mm 2 mps 754 mmHg 88%
    04:00 +1°C° 0 mm 2 mps 754 mmHg 88%
    05:00 0°C° 0 mm 3 mps 754 mmHg 88%
    06:00 0°C° 0 mm 3 mps 754 mmHg 89%
    07:00 +1°C° 0.1 mm 3 mps 754 mmHg 89%
    08:00 +1°C° 0.1 mm 3 mps 754 mmHg 89%
    09:00 +2°C° 0.1 mm 3 mps 754 mmHg 89%
    10:00 +2°C° 0.2 mm 3 mps 754 mmHg 90%
    11:00 +4°C° 0.2 mm 2 mps 754 mmHg 90%
    12:00 +4°C° 0.2 mm 2 mps 754 mmHg 91%
    13:00 +4°C° 0.1 mm 2 mps 754 mmHg 91%
    14:00 +4°C° 0.1 mm 2 mps 754 mmHg 91%
    15:00 +4°C° 0.1 mm 2 mps 754 mmHg 91%
    16:00 +3°C° 0 mm 2 mps 754 mmHg 90%
    17:00 +2°C° 0 mm 2 mps 755 mmHg 90%
    18:00 +2°C° 0 mm 1 mps 755 mmHg 89%
    19:00 +2°C° 0 mm 1 mps 755 mmHg 88%
    20:00 +2°C° 0 mm 1 mps 756 mmHg 88%
    21:00 +2°C° 0 mm 1 mps 756 mmHg 87%
    22:00 +1°C° 0 mm 1 mps 756 mmHg 87%
    23:00 +1°C° 0 mm 1 mps 756 mmHg 87%
    Show more